Location: Newark
(33.6439°N, 114.9881°W)
Time: 22:39:23
(UTC+00:00)

A-11 Canister half - Pass Details

Date: 26 August 2019
Orbit: 1527 x 1682 km, 47.3° (Epoch: 22 September)

Event Time Altitude Azimuth Distance (km) Brightness Sun altitude
Rises 01:46:22 0° 304° (NW) 4,936 13.1 4.9°
Reaches altitude 10° 01:49:36 10° 301° (WNW) 3,946 12.7 4.3°
Maximum altitude 01:59:26 58° 226° (SW) 1,896 9.9 2.2°
Drops below altitude 10° 02:09:05 10° 150° (SSE) 3,865 10.7 0.3°
Sets 02:12:14 0° 146° (SE) 4,830 11.2 -0.4°
